[[{"header":{"parameterUnit":"m.s-1","parameterCategory":1,"la1":30.2991,"la2":30.254,"lo1":-89.0895,"lo2":-89.0444,"dy":0.0017,"dx":0.0017,"nx":28,"ny":28,"refTime":"2024-02-11T09:00:00:Z","depth":0,"parameterNumber":2,"parameterNumberName":"U-component_of_WINDS"},"data":[0,0,0,0,0,0,0,0,0,0,0,0,0,0,0,0,0,0,0,0,0,0,0,0,0,0,0,0,0,0,0,0,0,0,0,0,0,0,0,0,0,0,0,0,0,0,0,0,0,0,0,0,0,0,0,0,0,0,0.4138,0.414,0,0.4264,0.4265,0.4266,0.4296,0.4295,0.4295,0.4294,0.4418,0.4422,0.4426,0,0,0,0,0,0,0,0,0,0,0,0,0,0.392,0.3924,0.4138,0.414,0.4141,0.4263,0.4265,0.4267,0.4296,0.4295,0.4294,0.4294,0.4417,0.4422,0.4427,0,0,0,0,0,0,0,0,0,0,0,0,0,0.4027,0.3925,0.4138,0.4171,0.4175,0.4263,0.4265,0.4267,0.4297,0.4295,0.4294,0.4293,0.4416,0.4421,0.4428,0.449,0,0,0.4446,0.4449,0,0,0,0,0,0,0,0,0.4021,0.4035,0.4165,0.4169,0.4174,0.4263,0.4234,0.4342,0.4297,0.425,0.4294,0.4292,0.4368,0.4378,0.4404,0.4496,0.4501,0.4447,0.4451,0.4453,0.4455,0,0,0,0,0,0,0,0.4014,0.403,0.4188,0.4166,0.4172,0.4178,0.4192,0.4254,0.4314,0.4254,0.4257,0.4272,0.437,0.4398,0.4407,0.4503,0.4447,0.4452,0.4456,0.4458,0.4652,0.4654,0,0,0,0,0,0,0.4001,0.4023,0.4184,0.4191,0.4093,0.4183,0.4198,0.4236,0.4314,0.4325,0.4272,0.4272,0.4388,0.44,0.4411,0.449,0.4453,0.4459,0.4462,0.4651,0.4653,0.4654,0,0,0,0,0,0,0.3996,0.4015,0.4179,0.4108,0.413,0.4188,0.423,0.4239,0.4267,0.4327,0.4338,0.429,0.4387,0.4403,0.447,0.4495,0.4462,0.4467,0.4649,0.4651,0.4653,0.4648,0,0,0,0,0,0,0.399,0.4013,0.4039,0.4109,0.4133,0.4237,0.4231,0.4242,0.4278,0.4279,0.4347,0.4357,0.4387,0.4461,0.4477,0.4503,0.4472,0.4647,0.465,0.4653,0.4646,0.465,0.4653,0,0,0,0,0,0.3982,0.4031,0.404,0.4059,0.4167,0.4239,0.4253,0.4288,0.428,0.4305,0.4344,0.4355,0.4489,0.4468,0.4485,0.4514,0.4646,0.4649,0.4653,0.4645,0.4649,0.4653,0,0,0,0,0,0,0.3962,0.4041,0.4052,0.4125,0.4175,0.4244,0.4277,0.4291,0.4343,0.4342,0.4382,0.4397,0.4462,0.4494,0.4469,0.4578,0.4567,0.4574,0.4555,0.456,0.4563,0.4554,0.4477,0,0,0,0,0,0.3966,0.4019,0.4085,0.4144,0.4168,0.4218,0.4251,0.4274,0.4326,0.4347,0.4391,0.444,0.4494,0.4528,0.4581,0.465,0.4665,0.4678,0.4681,0.4683,0.469,0.4728,0.4735,0.4665,0.4665,0.4665,0,0,0.3975,0.4025,0.4056,0.4141,0.4182,0.4235,0.4236,0.4292,0.4331,0.4355,0.4423,0.4456,0.4514,0.4583,0.4615,0.4612,0.4712,0.4688,0.4689,0.4694,0.4733,0.4739,0.4745,0.4667,0.4667,0.4667,0,0,0.402,0.4063,0.4117,0.4158,0.4221,0.4253,0.4266,0.4332,0.4356,0.4424,0.4443,0.4489,0.4581,0.4621,0.4654,0.4711,0.4723,0.4727,0.4744,0.4782,0.4787,0.4792,0.4814,0.4821,0.4732,0.4732,0.4732,0,0.4023,0.4105,0.4142,0.4198,0.4234,0.4259,0.4313,0.4351,0.4427,0.4451,0.4445,0.456,0.46,0.4679,0.4693,0.4718,0.4734,0.4721,0.4784,0.4789,0.4795,0.4815,0.4823,0.4733,0.4733,0.4732,0.4732,0,0.4106,0.4163,0.4198,0.4273,0.4313,0.4367,0.4411,0.4447,0.4465,0.4498,0.4566,0.4615,0.4678,0.4698,0.4716,0.4779,0.4775,0.4776,0.4766,0.4801,0.4821,0.4829,0.4733,0.4733,0.4733,0.4733,0,0,0.4143,0.4237,0.425,0.4284,0.4354,0.4398,0.4452,0.4515,0.4544,0.4595,0.4642,0.4717,0.4719,0.4755,0.4778,0.4811,0.4854,0.4808,0.481,0.4815,0.4926,0.4926,0.4935,0.4861,0.4863,0.4864,0.4922,0,0.4197,0.4298,0.4332,0.4415,0.4467,0.4491,0.4538,0.4585,0.4617,0.4664,0.4698,0.4751,0.4749,0.4771,0.4804,0.4842,0.4877,0.4838,0.4904,0.4906,0.4891,0.4945,0.4945,0.4997,0.493,0.4931,0.4932,0,0.4274,0.4328,0.4416,0.448,0.4503,0.4545,0.4605,0.465,0.4704,0.4724,0.4765,0.4785,0.4841,0.4826,0.4904,0.4877,0.4905,0.4927,0.493,0.4939,0.4922,0.4956,0.5015,0.5023,0.4944,0.4943,0.4943,0,0.4293,0.4387,0.4452,0.448,0.4556,0.4585,0.4617,0.467,0.4705,0.4756,0.4779,0.4836,0.4867,0.4909,0.4943,0.493,0.5018,0.5006,0.5036,0.5035,0.5056,0.5054,0.5121,0.5071,0.5071,0.5071,0.5071,0,0.4351,0.4404,0.4462,0.4502,0.4562,0.46,0.4657,0.4691,0.4737,0.4783,0.4805,0.4847,0.4889,0.4936,0.4963,0.5023,0.5037,0.5054,0.5061,0.5053,0.5051,0.5074,0.5072,0.5073,0.5073,0.5072,0.5072,0,0.4383,0.4424,0.4497,0.4563,0.458,0.4621,0.4677,0.4716,0.4747,0.4805,0.4821,0.487,0.4927,0.4965,0.5036,0.5054,0.512,0.5125,0.5103,0.5107,0.5135,0.5132,0.5219,0.5233,0.5173,0.5174,0.5174,0,0.4418,0.446,0.453,0.4563,0.4597,0.4649,0.4686,0.4723,0.476,0.4823,0.4854,0.4912,0.4962,0.5051,0.5092,0.5147,0.5154,0.5181,0.5163,0.5154,0.5156,0.5154,0.5158,0.5184,0.5185,0.5185,0.5186,0,0.4476,0.4494,0.4546,0.4606,0.4649,0.4697,0.4745,0.477,0.4815,0.4855,0.4914,0.4952,0.5026,0.5084,0.5142,0.5174,0.5187,0.5191,0.5201,0.5194,0.518,0.5189,0.5112,0.5189,0.5189,0.5188,0.5188,0.5188,0.4511,0.455,0.4605,0.4663,0.4703,0.4747,0.4787,0.4824,0.4874,0.4939,0.4957,0.5018,0.5069,0.515,0.5182,0.523,0.5227,0.5241,0.5245,0.5248,0.5249,0.5171,0.524,0.524,0.524,0.524,0.524,0,0.4571,0.4608,0.466,0.4727,0.4772,0.4781,0.4835,0.4871,0.4926,0.4973,0.5021,0.5088,0.5143,0.5189,0.5245,0.5275,0.5282,0.5289,0.5287,0.5295,0.5248,0.5234,0.5282,0.5282,0.5282,0.5282,0.5282,0.5282,0.4607,0.4673,0.4697,0.4782,0.4818,0.488,0.491,0.495,0.4988,0.5063,0.511,0.5139,0.5185,0.5246,0.5296,0.5308,0.5328,0.5334,0.5347,0.5302,0.5298,0.5293,0.5281,0.5337,0.5337,0.539,0.539,0.5391]},{"header":{"parameterUnit":"m.s-1","parameterCategory":1,"la1":30.2991,"la2":30.254,"lo1":-89.0895,"lo2":-89.0444,"dy":0.0017,"dx":0.0017,"nx":28,"ny":28,"refTime":"2024-02-11T09:00:00:Z","depth":0,"parameterNumber":3,"parameterNumberName":"V-component_of_WINDS"},"data":[0,0,0,0,0,0,0,0,0,0,0,0,0,0,0,0,0,0,0,0,0,0,0,0,0,0,0,0,0,0,0,0,0,0,0,0,0,0,0,0,0,0,0,0,0,0,0,0,0,0,0,0,0,0,0,0,0,0,3.4167,3.4167,0,3.4187,3.4187,3.4187,3.4176,3.4176,3.4175,3.4174,3.4194,3.4195,3.4196,0,0,0,0,0,0,0,0,0,0,0,0,0,3.4118,3.4119,3.4167,3.4167,3.4168,3.4187,3.4187,3.4188,3.4176,3.4176,3.4175,3.4174,3.4194,3.4195,3.4196,0,0,0,0,0,0,0,0,0,0,0,0,0,3.4139,3.4119,3.4167,3.4164,3.4164,3.4187,3.4187,3.4188,3.4176,3.4176,3.4175,3.4174,3.4193,3.4195,3.4196,3.4223,0,0,3.4201,3.4202,0,0,0,0,0,0,0,0,3.4138,3.4141,3.4164,3.4164,3.4164,3.4178,3.4177,3.4199,3.4177,3.4172,3.4174,3.4173,3.4189,3.4191,3.4197,3.4223,3.4224,3.4201,3.4202,3.4203,3.4203,0,0,0,0,0,0,0,3.4136,3.414,3.4175,3.4165,3.4165,3.4162,3.4164,3.4181,3.4185,3.4172,3.4171,3.4174,3.4189,3.4195,3.4197,3.4225,3.4201,3.4202,3.4203,3.4204,3.4274,3.4275,0,0,0,0,0,0,3.4135,3.4139,3.4174,3.4176,3.4149,3.4163,3.4166,3.4175,3.4185,3.4185,3.4175,3.4173,3.4193,3.4195,3.4198,3.423,3.4203,3.4204,3.4205,3.4273,3.4275,3.4276,0,0,0,0,0,0,3.4134,3.4138,3.4173,3.4157,3.4161,3.4165,3.4175,3.4175,3.4182,3.4187,3.4187,3.418,3.4192,3.4196,3.4217,3.423,3.4205,3.4206,3.4272,3.4274,3.4275,3.4294,0,0,0,0,0,0,3.4133,3.4138,3.4148,3.4157,3.4162,3.4192,3.4176,3.4176,3.4184,3.4183,3.4192,3.4193,3.4192,3.4214,3.4218,3.4232,3.4208,3.4271,3.4273,3.4275,3.4292,3.4296,3.4299,0,0,0,0,0,3.4131,3.4153,3.4149,3.4153,3.4175,3.4193,3.4196,3.4195,3.4186,3.4196,3.4199,3.4192,3.4228,3.4217,3.4221,3.4235,3.427,3.4272,3.4275,3.4291,3.4295,3.4299,0,0,0,0,0,0,3.4145,3.4154,3.415,3.4175,3.4184,3.4191,3.4204,3.42,3.4211,3.4209,3.4207,3.4209,3.4231,3.4235,3.4222,3.4262,3.4248,3.4251,3.4259,3.4263,3.4266,3.4265,3.4209,0,0,0,0,0,3.4151,3.4165,3.4172,3.4193,3.4198,3.42,3.4208,3.4207,3.4216,3.4219,3.4224,3.4232,3.4245,3.4254,3.4266,3.4292,3.4294,3.4304,3.4308,3.4311,3.4314,3.4328,3.4333,3.4283,3.4282,3.4282,0,0,3.4164,3.417,3.4179,3.4196,3.4203,3.4218,3.4204,3.422,3.4231,3.4221,3.4242,3.4246,3.4255,3.4279,3.429,3.4283,3.4328,3.4313,3.4315,3.4317,3.4331,3.4336,3.434,3.4284,3.4284,3.4283,0,0,3.4194,3.42,3.4219,3.4226,3.4236,3.4238,3.4242,3.4251,3.4253,3.4274,3.4267,3.428,3.4303,3.431,3.4316,3.435,3.4344,3.4353,3.4372,3.4386,3.439,3.4394,3.4407,3.4411,3.4356,3.4356,3.4356,0,3.4209,3.4231,3.423,3.4247,3.4255,3.4247,3.4266,3.4273,3.4286,3.4292,3.4284,3.4312,3.4318,3.4344,3.4352,3.4357,3.4362,3.4353,3.439,3.4393,3.4397,3.4409,3.4414,3.4357,3.4357,3.4357,3.4357,0,3.4249,3.4265,3.4279,3.4293,3.4302,3.432,3.4321,3.433,3.4328,3.433,3.4351,3.4358,3.4371,3.4377,3.4374,3.4403,3.4398,3.439,3.4376,3.4403,3.4414,3.4419,3.4359,3.4359,3.4358,3.4358,0,0,3.429,3.4303,3.4308,3.4314,3.4325,3.4337,3.4354,3.4368,3.4377,3.4386,3.4401,3.442,3.4413,3.442,3.4418,3.4431,3.4458,3.4421,3.4421,3.4429,3.449,3.4497,3.4503,3.4454,3.4455,3.4455,3.449,0,3.4322,3.4354,3.4353,3.4382,3.4397,3.4389,3.4404,3.4412,3.4415,3.4427,3.443,3.4444,3.4432,3.4437,3.4449,3.4452,3.447,3.4449,3.4468,3.4469,3.4467,3.4508,3.4516,3.4548,3.4494,3.4495,3.4495,0,3.4365,3.4376,3.4407,3.4416,3.4422,3.4436,3.4449,3.446,3.4469,3.447,3.4478,3.4475,3.4492,3.4477,3.4502,3.4487,3.4495,3.4497,3.4499,3.4501,3.4485,3.4513,3.4558,3.4564,3.4502,3.4502,3.4501,0,3.4393,3.4416,3.4437,3.4443,3.4453,3.4463,3.4468,3.4476,3.4485,3.4495,3.4501,3.4514,3.4521,3.453,3.453,3.4519,3.4555,3.454,3.4557,3.4557,3.4566,3.4565,3.4614,3.4568,3.4568,3.4568,3.4568,0,3.443,3.4449,3.445,3.4464,3.4485,3.4484,3.4505,3.4508,3.4516,3.4529,3.4523,3.4536,3.4534,3.4547,3.4547,3.4568,3.4571,3.4572,3.4572,3.4573,3.4573,3.4579,3.4577,3.457,3.4569,3.4569,3.4569,0,3.4466,3.4467,3.449,3.4498,3.4501,3.4516,3.4523,3.4536,3.4537,3.4555,3.4559,3.4562,3.4577,3.4577,3.4594,3.4594,3.462,3.4616,3.4617,3.4617,3.4634,3.4633,3.4689,3.4696,3.4645,3.4646,3.4646,0,3.449,3.4505,3.4515,3.4524,3.4529,3.4544,3.4553,3.4551,3.456,3.4572,3.4583,3.4598,3.4609,3.4634,3.4637,3.465,3.4648,3.4666,3.465,3.4651,3.4649,3.4649,3.4651,3.467,3.467,3.4671,3.4671,0,3.4533,3.4533,3.4546,3.456,3.4571,3.4581,3.4591,3.4598,3.4598,3.4609,3.4624,3.4633,3.4651,3.4666,3.4678,3.4683,3.4677,3.4676,3.4681,3.4683,3.4684,3.4685,3.4627,3.4675,3.4675,3.4675,3.4674,3.4674,3.4565,3.4578,3.4587,3.4602,3.4609,3.4618,3.4631,3.4634,3.4647,3.4662,3.466,3.4677,3.4686,3.4702,3.4708,3.4721,3.4715,3.4722,3.4724,3.4726,3.4728,3.4681,3.4723,3.4723,3.4723,3.4723,3.4723,0,3.4609,3.4614,3.4628,3.4642,3.4654,3.4647,3.4657,3.4668,3.4683,3.4692,3.4703,3.4722,3.4736,3.474,3.4754,3.4764,3.4762,3.4767,3.4767,3.4769,3.4733,3.4728,3.4769,3.4769,3.4769,3.4769,3.4769,3.4769,3.4633,3.4656,3.4657,3.4682,3.4687,3.4705,3.4711,3.472,3.4727,3.4747,3.4759,3.4762,3.4769,3.4783,3.4795,3.4796,3.4802,3.4809,3.4809,3.4776,3.4771,3.4767,3.4762,3.481,3.481,3.4844,3.4845,3.4845]}]]